Regional Weather Roundup
Issued by NWS Little Rock, AR

Home | Current Version | Previous Version | Graphics & Text | Print | Product List | Glossary On
Versions: 1 2 3 4 5 6 7 8 9 10 11 12 13 14 15 16 17 18 19 20 21 22 23 24 25 26 27 28 29 30 31 32 33 34 35 36 37 38 39 40 41 42 43 44 45 46 47 48 49 50
000
ASUS44 KLZK 291205
RWRLZK

WEATHER ROUNDUP FOR ARKANSAS
NATIONAL WEATHER SERVICE LITTLE ROCK AR
700 AM CDT MON JUN 29 2015

NOTE: "FAIR" INDICATES FEW OR NO CLOUDS BELOW 12,000 FEET WITH NO
SIGNIFICANT WEATHER AND/OR OBSTRUCTIONS TO VISIBILITY.

ARZ001-003-010-029-291300-
NORTHWEST ARKANSAS

CITY           SKY/WX    TMP DP  RH WIND       PRES   REMARKS
FAYETTEVILLE   CLEAR     69  62  78 SW8       29.96R
6HR MIN TEMP:  67; 6HR MAX TEMP:  75;

FORT SMITH     CLEAR     73  64  73 W8        29.94R
6HR MIN TEMP:  71; 6HR MAX TEMP:  77;

HARRISON       SUNNY     74  60  61 W10G17    29.93R
6HR MIN TEMP:  73; 6HR MAX TEMP:  78;

BENTONVILLE    CLEAR     70  61  73 SW7       29.95R
ROGERS         PTCLDY    70  63  78 SW10      29.95R
6HR MIN TEMP:  70; 6HR MAX TEMP:  75;

SILOAM SPGS    CLEAR     70  59  68 SW9       29.95R
6HR MIN TEMP:  66; 6HR MAX TEMP:  73;

HIGHFILL       CLEAR     69  64  84 SW8       29.94R
6HR MIN TEMP:  69; 6HR MAX TEMP:  75;

SPRINGDALE     PTCLDY    72  61  68 SW13      29.97R
$$

ARZ004-005-016-291300-
NORTH CENTRAL ARKANSAS

CITY           SKY/WX    TMP DP  RH WIND       PRES   REMARKS
BATESVILLE     SUNNY     73  64  73 SW3       29.90R
6HR MIN TEMP:  72; 6HR MAX TEMP:  77;

FLIPPIN        SUNNY     68  63  83 CALM      29.88R
6HR MIN TEMP:  66; 6HR MAX TEMP:  75;

MTN HOME       MOSUNNY   72  64  76 SW3       29.90R
6HR MIN TEMP:  68; 6HR MAX TEMP:  72;

$$

ARZ040-041-291300-
WEST CENTRAL ARKANSAS

CITY           SKY/WX    TMP DP  RH WIND       PRES   REMARKS
MENA           MOCLDY    73  68  83 SW7       29.99S
MOUNT IDA      CLOUDY    68  66  93 CALM      29.96R
6HR MIN TEMP:  67; 6HR MAX TEMP:  70;

$$

ARZ009-017-025-026-028-291300-
NORTHEAST ARKANSAS

CITY           SKY/WX    TMP DP  RH WIND       PRES   REMARKS
JONESBORO      CLOUDY    73  68  84 SW10      29.89R
6HR MIN TEMP:  71; 6HR MAX TEMP:  77; 6HR PCP:  0.03;

NEWPORT        CLOUDY    74  67  78 S8        29.91R
6HR MIN TEMP:  73; 6HR MAX TEMP:  78;

WALNUT RIDGE   SUNNY     73  66  78 SW12      29.88R
6HR MIN TEMP:  72; 6HR MAX TEMP:  75;

BLYTHEVILLE    CLOUDY    73  69  87 SW12      29.89R
6HR MIN TEMP:  72; 6HR MAX TEMP:  76; 6HR PCP:  0.09;

$$

ARZ022-023-033-042-044-291300-
CENTRAL ARKANSAS

CITY           SKY/WX    TMP DP  RH WIND       PRES   REMARKS
LITTLE ROCK    PTSUNNY   73  64  73 SW9       29.94R
6HR MIN TEMP:  71; 6HR MAX TEMP:  76;

N LITTLE ROCK    N/A     75  68  78 SW6       29.94R
6HR MIN TEMP:  72; 6HR MAX TEMP:  76;

JACKSONVILLE   MOSUNNY   72  66  82 W5        29.92R
6HR MIN TEMP:  69; 6HR MAX TEMP:  77;

SEARCY         CLOUDY    70  67  90 S3        29.94R
6HR MIN TEMP:  67; 6HR MAX TEMP:  73; 6HR PCP:  0.02;

HOT SPRINGS    LGT RAIN  71  66  84 CALM      29.97R
6HR MIN TEMP:  70; 6HR MAX TEMP:  73; 6HR PCP: TRACE;

RUSSELLVILLE   MOSUNNY   71  68  90 CALM      29.93R
6HR MIN TEMP:  69; 6HR MAX TEMP:  75;

CLINTON        FAIR      68  68 100 CALM      29.93R
$$

ARZ036-291300-
EAST ARKANSAS

CITY           SKY/WX    TMP DP  RH WIND       PRES   REMARKS
WEST MEMPHIS   PTSUNNY   73  67  81 S5        29.93R
6HR MIN TEMP:  72; 6HR MAX TEMP:  74;

$$

ARZ050-053-066-070-073-291300-
SOUTHWEST ARKANSAS

CITY           SKY/WX    TMP DP  RH WIND       PRES   REMARKS
ARKADELPHIA    FAIR      68  68 100 CALM      29.97R
6HR MIN TEMP:  67; 6HR MAX TEMP:  71;

CAMDEN         CLEAR     68  64  88 CALM      29.97R
TEXARKANA      CLEAR     72  69  90 SW6       29.98R
6HR MIN TEMP:  70; 6HR MAX TEMP:  73;

EL DORADO      CLEAR     69  67  93 CALM      29.98R
6HR MIN TEMP:  67; 6HR MAX TEMP:  70;

DE QUEEN       PTCLDY    67  66  97 CALM      29.97R FOG
6HR MIN TEMP:  65; 6HR MAX TEMP:  69;

$$

ARZ056-057-069-291300-
SOUTHEAST ARKANSAS

CITY           SKY/WX    TMP DP  RH WIND       PRES   REMARKS
PINE BLUFF     SUNNY     70  64  81 SW5       29.96R
6HR MIN TEMP:  69; 6HR MAX TEMP:  72;

STUTTGART      SUNNY     70  64  83 SW8       29.95R
6HR MIN TEMP:  70; 6HR MAX TEMP:  73;

MONTICELLO     SUNNY     74  67  78 SW6       29.97R
6HR MIN TEMP:  72; 6HR MAX TEMP:  75;


$$




USA.gov is the U.S. government's official web portal to all federal, state and local government web resources and services.